Time,TemperatureF,DewpointF,PressureIn,WindDirection,WindDirectionDegrees,WindSpeedMPH,WindSpeedGustMPH,Humidity,HourlyPrecipIn,Conditions,Clouds,dailyrainin,SoftwareType,DateUTC
2013-09-20 00:24:00,63.0,60.0,30.04,West,277,0.0,0.0,89,0.00,,,0.00,,2013-09-20 04:24:00,
2013-09-20 00:54:00,62.0,59.0,30.04,West,277,0.0,0.0,91,0.00,,,0.00,,2013-09-20 04:54:00,
2013-09-20 01:23:00,61.0,59.0,30.04,West,277,0.0,0.0,92,0.00,,,0.00,,2013-09-20 05:23:00,
2013-09-20 01:53:00,61.0,59.0,30.04,West,277,0.0,0.0,93,0.00,,,0.00,,2013-09-20 05:53:00,
2013-09-20 02:12:00,61.0,59.0,30.04,West,277,0.0,0.0,93,0.00,,,0.00,,2013-09-20 06:12:00,
2013-09-20 02:22:00,61.0,59.0,30.04,West,277,0.0,0.0,94,0.00,,,0.00,,2013-09-20 06:22:00,
2013-09-20 02:52:00,61.0,59.0,30.03,West,277,0.0,0.0,93,0.00,,,0.00,,2013-09-20 06:52:00,
2013-09-20 03:12:00,61.0,59.0,30.04,West,277,0.0,0.0,94,0.00,,,0.00,,2013-09-20 07:12:00,
2013-09-20 03:23:00,61.0,59.0,30.04,West,277,0.0,0.0,94,0.00,,,0.00,,2013-09-20 07:23:00,
2013-09-20 03:53:00,61.0,59.0,30.03,West,277,0.0,0.0,94,0.00,,,0.00,,2013-09-20 07:53:00,
2013-09-20 04:11:00,62.0,60.0,30.03,West,277,0.0,0.0,94,0.00,,,0.00,,2013-09-20 08:11:00,
2013-09-20 04:22:00,62.0,60.0,30.03,West,277,0.0,0.0,94,0.00,,,0.00,,2013-09-20 08:22:00,
2013-09-20 04:52:00,63.0,60.0,30.02,SSE,158,0.0,2.0,91,0.00,,,0.00,,2013-09-20 08:52:00,
2013-09-20 05:22:00,63.0,60.0,30.02,SSE,155,0.0,0.0,91,0.00,,,0.00,,2013-09-20 09:22:00,
2013-09-20 05:53:00,63.0,60.0,30.01,SSE,155,0.0,0.0,91,0.00,,,0.00,,2013-09-20 09:53:00,
2013-09-20 06:23:00,62.0,60.0,30.01,SSE,155,0.0,0.0,92,0.00,,,0.00,,2013-09-20 10:23:00,
2013-09-20 06:53:00,62.0,60.0,30.01,South,171,1.0,3.0,93,0.00,,,0.00,,2013-09-20 10:53:00,
2013-09-20 07:23:00,63.0,61.0,30.01,SE,140,0.0,1.0,93,0.00,,,0.00,,2013-09-20 11:23:00,
2013-09-20 07:52:00,63.0,61.0,30.02,SE,140,0.0,3.0,93,0.00,,,0.00,,2013-09-20 11:52:00,
2013-09-20 08:12:00,63.0,61.0,30.01,SE,140,0.0,1.0,94,0.00,,,0.00,,2013-09-20 12:12:00,
2013-09-20 08:22:00,63.0,61.0,30.01,SSW,200,0.0,2.0,94,0.00,,,0.00,,2013-09-20 12:22:00,
2013-09-20 08:52:00,64.0,62.0,30.01,South,191,0.0,2.0,94,0.00,,,0.00,,2013-09-20 12:52:00,
2013-09-20 09:22:00,65.0,63.0,30.01,SSE,154,0.0,4.0,93,0.00,,,0.00,,2013-09-20 13:22:00,
2013-09-20 09:52:00,67.0,64.0,30.00,SE,139,1.0,5.0,89,0.00,,,0.00,,2013-09-20 13:52:00,
2013-09-20 10:21:00,69.0,65.0,29.99,SSE,160,0.0,4.0,86,0.00,,,0.00,,2013-09-20 14:21:00,
2013-09-20 10:52:00,70.0,65.0,29.99,WNW,290,0.0,5.0,85,0.00,,,0.00,,2013-09-20 14:52:00,
2013-09-20 11:12:00,70.0,65.0,29.99,SE,141,0.0,3.0,84,0.00,,,0.00,,2013-09-20 15:12:00,
2013-09-20 11:22:00,71.0,66.0,29.99,South,171,0.0,3.0,84,0.00,,,0.00,,2013-09-20 15:22:00,
2013-09-20 11:54:00,72.0,67.0,29.99,SSE,163,2.0,6.0,83,0.00,,,0.00,,2013-09-20 15:54:00,
2013-09-20 12:23:00,72.0,67.0,29.98,SE,134,0.0,6.0,85,0.00,,,0.00,,2013-09-20 16:23:00,
2013-09-20 12:53:00,74.0,66.0,29.98,SSE,167,2.0,7.0,77,0.00,,,0.00,,2013-09-20 16:53:00,
2013-09-20 13:24:00,74.0,67.0,29.98,SSE,149,0.0,6.0,79,0.00,,,0.00,,2013-09-20 17:24:00,
2013-09-20 13:53:00,75.0,67.0,29.97,South,186,1.0,9.0,77,0.00,,,0.00,,2013-09-20 17:53:00,
2013-09-20 14:22:00,76.0,68.0,29.95,SSW,195,0.0,6.0,76,0.00,,,0.00,,2013-09-20 18:22:00,
2013-09-20 14:52:00,77.0,68.0,29.94,South,188,1.0,6.0,74,0.00,,,0.00,,2013-09-20 18:52:00,
2013-09-20 15:12:00,78.0,68.0,29.93,WNW,302,1.0,7.0,72,0.00,,,0.00,,2013-09-20 19:12:00,
2013-09-20 15:22:00,78.0,68.0,29.93,SW,231,0.0,6.0,72,0.00,,,0.00,,2013-09-20 19:22:00,
2013-09-20 15:52:00,78.0,68.0,29.92,SE,131,0.0,6.0,72,0.00,,,0.00,,2013-09-20 19:52:00,
2013-09-20 16:22:00,78.0,67.0,29.92,SSE,154,1.0,6.0,70,0.00,,,0.00,,2013-09-20 20:22:00,
2013-09-20 16:52:00,78.0,69.0,29.91,SE,144,0.0,6.0,73,0.00,,,0.00,,2013-09-20 20:52:00,
2013-09-20 17:22:00,78.0,67.0,29.89,SE,140,2.0,9.0,70,0.00,,,0.00,,2013-09-20 21:22:00,
2013-09-20 17:54:00,77.0,68.0,29.88,SSE,148,1.0,6.0,73,0.00,,,0.00,,2013-09-20 21:54:00,
2013-09-20 18:14:00,77.0,68.0,29.88,SE,146,1.0,6.0,73,0.00,,,0.00,,2013-09-20 22:14:00,
2013-09-20 18:24:00,77.0,67.0,29.88,SSE,154,1.0,6.0,72,0.00,,,0.00,,2013-09-20 22:24:00,
2013-09-20 18:53:00,77.0,68.0,29.88,SE,140,2.0,5.0,74,0.00,,,0.00,,2013-09-20 22:53:00,
2013-09-20 19:13:00,75.0,67.0,29.87,SE,132,1.0,5.0,77,0.00,,,0.00,,2013-09-20 23:13:00,
2013-09-20 19:22:00,75.0,67.0,29.87,South,177,1.0,9.0,77,0.00,,,0.00,,2013-09-20 23:22:00,
2013-09-20 19:53:00,74.0,67.0,29.86,SE,132,0.0,6.0,80,0.00,,,0.00,,2013-09-20 23:53:00,
2013-09-20 20:11:00,73.0,67.0,29.86,SE,142,0.0,6.0,82,0.00,,,0.00,,2013-09-21 00:11:00,
2013-09-20 20:22:00,73.0,67.0,29.86,SSE,165,1.0,3.0,82,0.00,,,0.00,,2013-09-21 00:22:00,
2013-09-20 20:42:00,73.0,68.0,29.87,South,169,2.0,6.0,83,0.00,,,0.00,,2013-09-21 00:42:00,
2013-09-20 20:52:00,73.0,68.0,29.87,SSE,161,0.0,4.0,84,0.00,,,0.00,,2013-09-21 00:52:00,
2013-09-20 21:12:00,72.0,67.0,29.87,SE,142,1.0,5.0,85,0.00,,,0.00,,2013-09-21 01:12:00,
2013-09-20 21:22:00,72.0,67.0,29.87,SSE,154,0.0,6.0,85,0.00,,,0.00,,2013-09-21 01:22:00,
2013-09-20 21:52:00,71.0,67.0,29.86,SE,127,0.0,5.0,87,0.00,,,0.00,,2013-09-21 01:52:00,
2013-09-20 22:12:00,71.0,67.0,29.87,SE,134,1.0,4.0,87,0.00,,,0.00,,2013-09-21 02:12:00,
2013-09-20 22:22:00,71.0,67.0,29.87,SSE,154,0.0,7.0,87,0.00,,,0.00,,2013-09-21 02:22:00,
2013-09-20 22:42:00,71.0,67.0,29.86,SE,138,0.0,2.0,87,0.00,,,0.00,,2013-09-21 02:42:00,
2013-09-20 22:52:00,70.0,66.0,29.86,SE,129,0.0,2.0,87,0.00,,,0.00,,2013-09-21 02:52:00,
2013-09-20 23:22:00,70.0,66.0,29.85,SSE,163,1.0,3.0,88,0.00,,,0.00,,2013-09-21 03:22:00,
2013-09-20 23:54:00,70.0,66.0,29.84,SE,142,0.0,4.0,88,0.00,,,0.00,,2013-09-21 03:54:00,